Weather in Pulankol

Russia / Republic of Khakassia     53°23′13″N   90°36′17″E
temp.,
°C
wind,
m/s
gust,
m/s
humid.,
%
clouds,
%
prec.,
mm/h
press.,
hPa
HPBL,
m
27 october, wed
wed2701:00+6sw3355100 0.0 101131
04:00+8wsw91748100 0.0 1013866
07:00+6wsw8175650 0.0 1016947
10:00+5wsw71362100 0.0 10211203
13:00+4wsw6838100 0.0 10231055
16:00+4w5731100 0.0 1024869
19:00+2wsw3538100 0.0 1025330
22:00+1n124485 0.1 1026118
28 october, thu
thu2801:00−1nw1150100 0.1 102710
04:00−2wsw2256100 0.0 102814
07:00−4w2262100 0.0 103018
10:00−2wnw115192 0.0 1031189
13:00+2se1232100 0.0 1029731
16:00+2e2132100 0.0 1029377
19:00−1se1147100 0.0 103010
22:00−3sw11483 0.0 102910
29 october, fri
fri2901:00−3sw22474 0.0 102911
04:00−3sw22585 0.0 102811
07:00−3sw227093 0.0 102812
10:00+1ssw226299 0.0 102895
13:00+5ssw2357100 0.0 1026282
16:00+5s2361100 0.0 102691
19:00+3ssw3373100 0.0 102736
22:00+2ssw3274100 0.0 102623
30 october, sat
sat3001:00+2sw3271100 0.0 102620
04:00+2sw3372100 0.0 102520
07:00+2ssw3377100 0.0 102534
10:00+4ssw3865100 0.0 1024251
13:00+10sw81841100 0.0 10212218
16:00+5wsw91658100 0.0 10241203
19:00+1wsw9227097 0.0 10271444
22:00−1wsw597537 0.0 1031570
31 october, sun
sun3101:00−3sw61057100 0.1 1032670
04:00−4sw4856100 0.0 1032346
07:00−6ssw3470100 0.0 103173
10:00−3ssw3763100 0.0 1029309
13:000ssw3656100 0.0 1025635
16:00+1ssw3758100 0.0 1022673
19:00−1ssw3369100 0.0 102053
22:00−1s4779100 0.0 1018185